• Join FlightAware (Why Join?)
  • Login
  • US Flag 
08:56PM EDT


 

Airport Tracker/Info


-or-


 

Live Flight TrackerFlight Track Log ✈ N493S ✈ 09-Jul-2013 ✈ KIAH - KSJC

Flight Track Log - Related Links

Times and Time Zones

All times are in EDT time to prevent confusion due to time zone crossing. See the N493S flight status page for this flight to view local times or setup timezone preferences in your user account.

Time Position Orientation Groundspeed Altitude Reporting Facility
EDT Latitude Longitude Course Direction KTS MPH feet Rate Location/Type
10:54PM 29.9642 -95.3481 215° Southwest 177 204 700  Level Houston Center
10:54PM 29.9428 -95.3653 215° Southwest 184 212 1,800 1,500 Climbing Houston Center
10:55PM 29.9622 -95.4422 286° West 273 314 3,300 2,220 Climbing Houston Center
10:56PM 29.9786 -95.5297 282° West 278 320 6,600 3,000 Climbing Houston Center
10:57PM 29.9922 -95.6125 281° West 281 323 9,200 2,580 Climbing Houston Center
10:58PM 30.0017 -95.6589 283° West 283 326 10,400 2,160 Climbing Houston Center
10:59PM 30.0186 -95.7542 282° West 300 345 12,600 1,920 Climbing Houston Center
11:00PM 30.0356 -95.8572 281° West 326 375 14,400 1,680 Climbing Houston Center
11:01PM 30.0550 -95.9678 282° West 347 399 16,100 1,620 Climbing Houston Center
11:02PM 30.0733 -96.0756 281° West 366 421 17,700 1,500 Climbing Houston Center
11:03PM 30.0917 -96.1958 280° West 379 436 19,200 1,620 Climbing Houston Center
11:04PM 30.1142 -96.3478 280° West 399 459 21,000 1,620 Climbing Houston Center
11:05PM 30.1344 -96.4769 280° West 410 472 22,500 1,380 Climbing Houston Center
11:06PM 30.1544 -96.6119 280° West 420 483 23,900 1,320 Climbing Houston Center
11:07PM 30.1750 -96.7500 280° West 428 493 25,300 1,320 Climbing Houston Center
11:08PM 30.1972 -96.8897 280° West 436 502 26,700 1,320 Climbing Houston Center
11:09PM 30.2175 -97.0339 279° West 445 512 28,100 1,380 Climbing Houston Center
11:10PM 30.2392 -97.1800 280° West 454 522 29,600 1,320 Climbing Houston Center
11:11PM 30.2606 -97.3294 279° West 462 532 30,900 1,080 Climbing Houston Center
11:12PM 30.2831 -97.4842 280° West 478 550 31,800 540 Climbing Houston Center
11:13PM 30.3069 -97.6436 280° West 492 566 32,000 60 Climbing Houston Center
11:14PM 30.3297 -97.8047 279° West 499 574 32,000  Level Houston Center
11:15PM 30.3514 -97.9644 279° West 498 573 32,000  Level Houston Center
11:16PM 30.3806 -98.1231 282° West 497 572 32,000  Level Houston Center
11:17PM 30.4142 -98.2808 284° West 497 572 32,000  Level Houston Center
11:18PM 30.4481 -98.4394 284° West 501 577 32,000  Level Houston Center
11:19PM 30.4789 -98.5964 283° West 496 571 32,000  Level Houston Center
11:20PM 30.5119 -98.7544 284° West 499 574 32,000  Level Houston Center
11:21PM 30.5456 -98.9139 284° West 503 579 32,000  Level Houston Center
11:22PM 30.5775 -99.0717 283° West 500 575 32,000  Level Houston Center
11:23PM 30.6122 -99.2425 283° West 502 578 32,000  Level Houston Center
11:24PM 30.6431 -99.3994 283° West 501 577 32,000  Level Houston Center
11:25PM 30.6747 -99.5556 283° West 500 575 32,000  Level Houston Center
11:26PM 30.7047 -99.7108 283° West 497 572 32,000  Level Houston Center
11:27PM 30.7342 -99.8633 283° West 490 564 32,000  Level Houston Center
11:28PM 30.7653 -100.0169 283° West 491 565 32,000  Level Houston Center
11:29PM 30.7950 -100.1706 283° West 491 565 32,000  Level Houston Center
11:30PM 30.8244 -100.3264 282° West 492 566 32,000  Level Houston Center
11:31PM 30.8544 -100.4800 283° West 485 558 32,000  Level Houston Center
11:32PM 30.8825 -100.6392 282° West 507 583 32,000  Level Houston Center
11:33PM 30.9189 -100.8242 283° West 528 608 32,000  Level Houston Center
11:34PM 30.9467 -100.9794 282° West 498 573 32,000  Level Houston Center
11:35PM 30.9761 -101.1353 282° West 495 570 32,000  Level Houston Center
11:37PM 31.0083 -101.2903 284° West 507 583 32,000  Level Houston Center
11:38PM 31.0347 -101.4583 280° West 503 579 32,000  Level Houston Center
11:39PM 31.0625 -101.6172 282° West 497 572 32,000  Level Houston Center
11:40PM 31.0925 -101.7753 283° West 499 574 32,000  Level Houston Center
11:41PM 31.1194 -101.9308 281° West 495 570 32,000  Level Houston Center
11:42PM 31.1478 -102.0903 282° West 502 578 32,000  Level Houston Center
11:42PM 31.1728 -102.2328 282° West 506 582 32,000  Level Albuquerque Center
11:43PM 31.2006 -102.3917 282° West 503 579 32,000  Level Albuquerque Center
11:44PM 31.2269 -102.5489 281° West 499 574 32,000  Level Albuquerque Center
11:45PM 31.2542 -102.7069 281° West 496 571 32,000  Level Albuquerque Center
11:47PM 31.2817 -102.8656 282° West 496 571 32,000  Level Albuquerque Center
11:48PM 31.3081 -103.0217 281° West 494 568 32,000  Level Albuquerque Center
11:49PM 31.3344 -103.1811 281° West 495 570 32,000  Level Albuquerque Center
11:50PM 31.3606 -103.3408 281° West 498 573 32,000  Level Albuquerque Center
11:51PM 31.3931 -103.5339 281° West 503 579 32,000  Level Albuquerque Center
11:52PM 31.4189 -103.6939 281° West 504 580 32,000  Level Albuquerque Center
11:53PM 31.4442 -103.8489 281° West 501 577 32,000  Level Albuquerque Center
11:54PM 31.4708 -104.0092 281° West 504 580 32,000  Level Albuquerque Center
11:55PM 31.4964 -104.1692 281° West 503 579 32,000  Level Albuquerque Center
11:56PM 31.5228 -104.3294 281° West 503 579 32,000  Level Albuquerque Center
11:57PM 31.5483 -104.4897 281° West 505 581 32,000  Level Albuquerque Center
11:58PM 31.5733 -104.6503 280° West 506 582 32,000  Level Albuquerque Center
11:59PM 31.6067 -104.8428 282° West 506 582 32,000  Level Albuquerque Center
12:00AM 31.6489 -104.9989 288° West 506 582 32,000  Level Albuquerque Center
12:01AM 31.6908 -105.1539 288° West 505 581 32,000  Level Albuquerque Center
12:02AM 31.7317 -105.3094 287° West 503 579 32,000 300 Level Albuquerque Center
12:03AM 31.7722 -105.4672 287° West 505 581 32,700 1,200 Climbing Albuquerque Center
12:04AM 31.8119 -105.6194 287° West 491 565 34,500 1,680 Climbing Albuquerque Center
12:05AM 31.8514 -105.7697 287° West 484 557 36,200 1,860 Climbing Albuquerque Center
12:06AM 31.8981 -105.9458 287° West 472 543 38,400 1,680 Climbing Albuquerque Center
12:07AM 31.9353 -106.0900 287° West 456 525 39,700 780 Climbing Albuquerque Center
12:08AM 31.9931 -106.2222 297° West 458 527 40,000 120 Climbing Albuquerque Center
12:09AM 32.0558 -106.3531 300° West 460 529 40,000  Level Albuquerque Center
12:10AM 32.1147 -106.4850 298° West 455 524 40,000  Level Albuquerque Center
12:11AM 32.1731 -106.6150 298° West 451 519 40,000  Level Albuquerque Center
12:12AM 32.2311 -106.7472 297° West 453 521 40,000  Level Albuquerque Center
12:13AM 32.2994 -106.8956 299° West 452 520 40,000  Level Albuquerque Center
12:14AM 32.3603 -107.0239 299° West 449 517 40,000  Level Albuquerque Center
12:15AM 32.4206 -107.1511 299° West 445 512 40,000  Level Albuquerque Center
12:16AM 32.4817 -107.2889 298° West 452 520 40,000  Level Albuquerque Center
12:17AM 32.5439 -107.4183 300° West 455 524 40,000  Level Albuquerque Center
12:18AM 32.5903 -107.5450 294° West 454 522 40,000  Level Albuquerque Center
12:19AM 32.6322 -107.6867 289° West 457 526 40,000  Level Albuquerque Center
12:20AM 32.6703 -107.8289 288° West 455 524 40,000  Level Albuquerque Center
12:21AM 32.7078 -107.9714 287° West 453 521 40,000  Level Albuquerque Center
12:22AM 32.7383 -108.1489 282° West 457 526 40,000  Level Albuquerque Center
12:23AM 32.7633 -108.2978 281° West 459 528 40,000  Level Albuquerque Center
12:24AM 32.7886 -108.4433 282° West 454 522 40,000  Level Albuquerque Center
12:25AM 32.8131 -108.5936 281° West 459 528 40,000  Level Albuquerque Center
12:26AM 32.8397 -108.7450 282° West 467 537 40,000  Level Albuquerque Center
12:27AM 32.8667 -108.8969 282° West 471 542 40,000  Level Albuquerque Center
12:28AM 32.8931 -109.0500 282° West 474 545 40,000  Level Albuquerque Center
12:29AM 32.9178 -109.2022 281° West 470 541 40,000  Level Albuquerque Center
12:30AM 32.9428 -109.3531 281° West 468 539 40,000  Level Albuquerque Center
12:31AM 32.9739 -109.4992 284° West 461 531 40,000  Level Albuquerque Center
12:32AM 33.0247 -109.6383 294° West 460 529 40,000  Level Albuquerque Center
12:33AM 33.0511 -109.7886 282° West 461 531 40,000  Level Albuquerque Center
12:34AM 33.0750 -109.9703 279° West 462 532 40,100 480 Climbing Albuquerque Center
12:35AM 33.0969 -110.1197 280° West 464 534 41,000 420 Climbing Albuquerque Center
12:36AM 33.1178 -110.2700 279° West 462 532 41,000  Level Albuquerque Center
12:37AM 33.1394 -110.4217 280° West 463 533 41,000  Level Albuquerque Center
12:39AM 33.1608 -110.5744 280° West 464 534 41,000  Level Albuquerque Center
12:40AM 33.1811 -110.7272 279° West 465 535 41,000  Level Albuquerque Center
12:41AM 33.2025 -110.8792 280° West 465 535 41,000  Level Albuquerque Center
12:42AM 33.2236 -111.0303 280° West 464 534 41,000  Level Albuquerque Center
12:43AM 33.2433 -111.1789 279° West 455 524 41,000  Level Albuquerque Center
12:44AM 33.2639 -111.3314 279° West 462 532 41,000  Level Albuquerque Center
12:45AM 33.2839 -111.4864 279° West 469 540 41,000  Level Albuquerque Center
12:46AM 33.3039 -111.6408 279° West 469 540 41,000  Level Albuquerque Center
12:47AM 33.3242 -111.7958 279° West 471 542 41,000  Level Albuquerque Center
12:48AM 33.3442 -111.9494 279° West 467 537 41,000  Level Albuquerque Center
12:49AM 33.3639 -112.1042 279° West 468 539 41,000  Level Albuquerque Center
12:50AM 33.3839 -112.2575 279° West 467 537 41,000  Level Albuquerque Center
12:51AM 33.4022 -112.4131 278° West 468 539 41,000  Level Albuquerque Center
12:52AM 33.4258 -112.5989 279° West 469 540 41,000  Level Albuquerque Center
12:53AM 33.4436 -112.7397 279° West 471 542 41,000  Level Albuquerque Center
12:54AM 33.4664 -112.8933 280° West 472 543 41,000  Level Albuquerque Center
12:55AM 33.4961 -113.0453 283° West 471 542 41,000  Level Albuquerque Center
12:56AM 33.5253 -113.1969 283° West 470 541 41,000  Level Albuquerque Center
12:57AM 33.5544 -113.3472 283° West 468 539 41,000  Level Albuquerque Center
12:58AM 33.5867 -113.5258 282° West 462 532 41,000  Level Albuquerque Center
12:59AM 33.6142 -113.6667 283° West 466 536 41,000  Level Albuquerque Center
01:00AM 33.6411 -113.8169 282° West 464 534 41,000  Level Albuquerque Center
01:01AM 33.6811 -113.9619 288° West 459 528 41,000  Level Albuquerque Center
01:02AM 33.7331 -114.1050 294° West 463 533 41,000  Level Albuquerque Center
01:03AM 33.7875 -114.2600 293° West 471 542 41,000  Level Albuquerque Center
01:04AM 33.8408 -114.4014 294° West 468 539 41,000  Level Albuquerque Center
01:05AM 33.8906 -114.5431 293° West 463 533 41,000  Level Albuquerque Center
01:06AM 33.9372 -114.6881 291° West 465 535 41,000  Level Albuquerque Center
01:07AM 34.0156 -114.8933 295° West 470 541 41,000  Level Los Angeles Center
01:08AM 34.0664 -115.0361 293° West 468 539 41,000  Level Los Angeles Center
01:09AM 34.1275 -115.2111 293° West 472 543 41,000  Level Los Angeles Center
01:10AM 34.1783 -115.3564 293° West 473 544 41,000  Level Los Angeles Center
01:11AM 34.2286 -115.5019 293° West 474 545 41,000  Level Los Angeles Center
01:12AM 34.2783 -115.6453 293° West 466 536 41,000  Level Los Angeles Center
01:13AM 34.3281 -115.7894 293° West 466 536 41,000  Level Los Angeles Center
01:15AM 34.3764 -115.9303 293° West 469 540 41,000  Level Los Angeles Center
01:16AM 34.4261 -116.0761 292° West 471 542 41,000  Level Los Angeles Center
01:17AM 34.4756 -116.2200 293° West 466 536 41,000  Level Los Angeles Center
01:18AM 34.5347 -116.3936 293° West 465 535 41,000 -120 Level Los Angeles Center
01:19AM 34.5842 -116.5389 292° West 464 534 40,800 -360 Descending Los Angeles Center
01:20AM 34.6322 -116.6825 292° West 462 532 40,300 -480 Descending Los Angeles Center
01:21AM 34.6697 -116.7950 292° West 455 524 39,900 -540 Descending Los Angeles Center
01:22AM 34.7256 -116.9647 292° West 451 519 39,300 -540 Descending Los Angeles Center
01:23AM 34.7725 -117.1075 292° West 453 521 38,800 -540 Descending Los Angeles Center
01:24AM 34.8197 -117.2519 292° West 457 526 38,300 -540 Descending Los Angeles Center
01:25AM 34.8667 -117.3964 292° West 458 527 37,800 -540 Descending Los Angeles Center
01:26AM 34.9136 -117.5447 291° West 462 532 37,300 -540 Descending Los Angeles Center
01:27AM 34.9608 -117.6994 290° West 482 555 36,800 -540 Descending Los Angeles Center
01:28AM 35.0122 -117.8461 293° West 470 541 36,200 -420 Descending Los Angeles Center
01:29AM 35.0597 -117.9875 292° West 451 519 36,000 -120 Descending Los Angeles Center
01:30AM 35.1153 -118.1619 291° West 459 528 36,000  Level Los Angeles Center
01:31AM 35.1625 -118.3108 291° West 470 541 36,000  Level Los Angeles Center
01:32AM 35.2086 -118.4581 291° West 468 539 36,000  Level Los Angeles Center
01:33AM 35.2542 -118.5900 293° West 458 527 36,000 -120 Level Los Angeles Center
01:34AM 35.2969 -118.7353 290° West 454 522 35,800 -420 Descending Los Angeles Center
01:35AM 35.3428 -118.8822 291° West 464 534 35,200 -660 Descending Los Angeles Center
01:36AM 35.3975 -119.0583 291° West 465 535 34,500 -660 Descending Los Angeles Center
01:37AM 35.4436 -119.2036 291° West 463 533 33,900 -600 Descending Los Angeles Center
01:38AM 35.4878 -119.3508 290° West 462 532 33,300 -660 Descending Los Angeles Center
01:39AM 35.5339 -119.4986 291° West 467 537 32,600 -780 Descending Los Angeles Center
01:40AM 35.5800 -119.6506 291° West 480 552 31,800 -780 Descending Los Angeles Center
01:41AM 35.6172 -119.7728 291° West 482 555 31,100 -840 Descending Los Angeles Center
01:42AM 35.6689 -119.9461 290° West 458 527 30,100 -840 Descending Los Angeles Center
01:43AM 35.7022 -120.0589 290° West 448 516 29,500 -840 Descending Los Angeles Center
01:44AM 35.7606 -120.2522 290° West 436 502 28,400 -900 Descending Los Angeles Center
01:45AM 35.8008 -120.3897 290° West 434 499 27,700 -780 Descending Los Angeles Center
01:46AM 35.8403 -120.5281 289° West 433 498 26,900 -840 Descending Los Angeles Center
01:47AM 35.8931 -120.6606 296° West 441 507 26,100 -900 Descending Los Angeles Center
01:48AM 35.9769 -120.7750 312° West 450 518 25,100 -960 Descending Los Angeles Center
01:49AM 36.0594 -120.8833 313° West 442 509 24,200 -960 Descending Los Angeles Center
01:50AM 36.1567 -121.0119 313° West 431 496 23,100 -960 Descending Oakland Center
01:51AM 36.2358 -121.1219 312° West 429 494 22,200 -900 Descending Oakland Center
01:52AM 36.3144 -121.2247 314° West 418 481 21,300 -900 Descending Oakland Center
01:53AM 36.3917 -121.3292 313° West 413 475 20,400 -960 Descending Oakland Center
01:54AM 36.4686 -121.4317 313° West 408 470 19,400 -1,440 Descending Oakland Center
01:55AM 36.5611 -121.5111 325° Northwest 407 468 17,500 -2,220 Descending Oakland Center
01:56AM 36.6806 -121.5617 341° North 383 441 14,900 -2,220 Descending Oakland Center
01:58AM 36.7806 -121.5628 359° North 363 418 13,000 -1,920 Descending Oakland Center
01:59AM 36.8733 -121.5653 359° North 341 392 11,100 -1,920 Descending Oakland Center
02:00AM 36.9558 -121.5992 342° North 317 365 9,200 -1,920 Descending Oakland Center
02:01AM 37.0347 -121.6447 335° Northwest 313 360 7,200 -1,620 Descending Oakland Center
02:02AM 37.1008 -121.6778 338° Northwest 306 352 6,000 -1,200 Descending Oakland Center
02:02AM 37.1667 -121.7167 335° Northwest 256 295 5,000 -1,020 Descending Northern Cal TRACON
02:03AM 37.2167 -121.7667 321° Northwest 222 255 4,200 -900 Descending Northern Cal TRACON
02:04AM 37.2667 -121.8167 321° Northwest 183 211 3,300 -1,200 Descending Northern Cal TRACON
02:05AM 37.2833 -121.8500 302° West 142 163 1,900 -1,080 Descending Northern Cal TRACON
02:06AM 37.3167 -121.8833 322° Northwest 136 157 1,300 -780 Descending Northern Cal TRACON
02:07AM 37.3500 -121.9167 322° Northwest 132 152 400 -840 Descending Northern Cal TRACON
02:09AM 37.3627 -121.9291 North  Level Estimated
02:16AM 37.3627 -121.9291 North  Level Estimated